This is the latest recevied weather packets stored in our database for station/object KB3HLL. If no packets are shown the sender has not sent any weather packets the latest 1 day(s).
| Time | Temp. | Humidity | Pressure | Rain* | Wind** | Luminosity | Snow |
|---|---|---|---|---|---|---|---|
| 1778022977 | 19.44° C | 66% | 1010.2 hPa | 0 mm | 0.45 m/s, 301° | 40 W/m² | - |
| 1778022678 | 19.44° C | 65% | 1010.2 hPa | 0 mm | 1.34 m/s, 316° | 58 W/m² | - |
| 1778022377 | 19.44° C | 65% | 1010.2 hPa | 0 mm | 1.34 m/s, 321° | 65 W/m² | - |
| 1778022080 | 19.44° C | 65% | 1010.1 hPa | 0 mm | 1.34 m/s, 329° | 61 W/m² | - |
| 1778021777 | 19.44° C | 65% | 1010.1 hPa | 0 mm | 1.34 m/s, 320° | 46 W/m² | - |
| 1778021478 | 20° C | 65% | 1010.2 hPa | 0 mm | 1.34 m/s, 311° | 34 W/m² | - |
| 1778021178 | 20° C | 64% | 1010.3 hPa | 0 mm | 1.34 m/s, 318° | 22 W/m² | - |
| 1778020878 | 20° C | 63% | 1010.4 hPa | 0 mm | 0.89 m/s, 316° | 41 W/m² | - |
| 1778020578 | 20° C | 63% | 1010.4 hPa | 0 mm | 1.34 m/s, 305° | 46 W/m² | - |
| 1778020277 | 20° C | 63% | 1010.4 hPa | 0 mm | 1.79 m/s, 298° | 67 W/m² | - |
| 1778019978 | 19.44° C | 64% | 1010.4 hPa | 0 mm | 1.34 m/s, 282° | 85 W/m² | - |
| 1778019677 | 19.44° C | 63% | 1010.5 hPa | 0 mm | 1.34 m/s, 289° | 95 W/m² | - |
| 1778019377 | 19.44° C | 64% | 1010.5 hPa | 0 mm | 0.89 m/s, 288° | 72 W/m² | - |
| 1778019078 | 19.44° C | 64% | 1010.5 hPa | 0 mm | 1.79 m/s, 282° | 29 W/m² | - |
| 1778018778 | 19.44° C | 65% | 1010.5 hPa | 0 mm | 1.34 m/s, 308° | 18 W/m² | - |
| 1778018478 | 20° C | 64% | 1010.6 hPa | 0 mm | 1.34 m/s, 272° | 40 W/m² | - |
| 1778018178 | 20° C | 65% | 1010.6 hPa | 0 mm | 0.89 m/s, 284° | 99 W/m² | - |
| 1778017877 | 20.56° C | 65% | 1010.4 hPa | 0 mm | 2.24 m/s, 275° | 108 W/m² | - |
| 1778017580 | 21.11° C | 60% | 1010.4 hPa | 0 mm | 0.89 m/s, 310° | 91 W/m² | - |
| 1778017277 | 21.67° C | 57% | 1010.3 hPa | 0 mm | 1.34 m/s, 299° | 117 W/m² | - |
| 1778016977 | 21.67° C | 56% | 1010.2 hPa | 0 mm | 1.34 m/s, 296° | 150 W/m² | - |
| 1778016679 | 21.67° C | 56% | 1010.2 hPa | 0 mm | 0.89 m/s, 45° | 113 W/m² | - |
| 1778016380 | 21.67° C | 55% | 1010 hPa | 0 mm | 0.89 m/s, 285° | 54 W/m² | - |
| 1778016078 | 21.67° C | 56% | 1010 hPa | 0 mm | 0 m/s | 108 W/m² | - |
| 1778015778 | 21.67° C | 56% | 1009.9 hPa | 0 mm | 0 m/s | 249 W/m² | - |
* Rain latest hour (hover to see other rain measurements)
** Current wind speed in m/s (hover to see current wind gust speed)